Weather in Istrovka

Russia / Kaliningrad Oblast     54°38′38″N   21°08′35″E
temp.,
°C
wind,
m/s
gust,
m/s
humid.,
%
clouds,
%
prec.,
mm/h
press.,
hPa
HPBL,
m
17 may, mon
mon1723:00+12s2596100 0.1 1003138
02:00+11s2698100 0.9 1003194
05:00+10ssw2696100 0.0 1004140
08:00+13ssw24850 0.0 1005376
11:00+17ssw33570 0.0 10051196
14:00+19ssw23492 0.0 10051726
17:00+19ssw115018 0.0 10041583
20:00+13nne23796 0.0 100435
18 may, tue
tue1823:00+10ene34884 0.0 100469
02:00+9ene2387100 0.0 100447
05:00+9ne1191100 0.0 100414
08:00+15ese1175100 0.0 1005310
11:00+18n2266100 0.4 10041013
14:00+18n336595 1.9 10051127
17:00+16nnw46685 0.4 1005514
20:00+11nw4108458 0.5 1006302
19 may, wed
wed1923:00+9nw41086100 0.0 1006308
02:00+10nw51180100 0.0 1006425
05:00+9wnw41089100 0.0 1007349
08:00+11wnw4883100 0.0 1008496
11:00+14wnw4668100 0.1 10091159
14:00+15nw567096 0.6 10091134
17:00+14nw57709 0.4 1010894
20:00+10wnw37905 0.4 1012317
20 may, thu
thu2023:00+6w36965 0.0 1013112
02:00+5wsw24953 0.0 101360
05:00+5w26973 0.0 1013119
08:00+12wnw36728 0.0 1014497
11:00+15nw56551 0.0 10141112
14:00+15nw57551 0.0 10151359
17:00+13nw57655 0.0 1016919
20:00+9wnw398097 0.0 1016404
21 may, fri
fri2123:00+5wsw35960 0.0 1017114
02:00+4wsw3109812 0.0 1017239
05:00+5sw3109811 0.0 1016239
08:00+10w57705 0.0 10171065
11:00+13w68505 0.1 10171819
14:00+14w584775 0.2 10171972
17:00+14wsw475418 0.0 10161599
20:00+11s348187 0.0 101678